Regional Weather Roundup
Issued by NWS

Home | Current Version | Previous Version | Graphics & Text | Print | Product List | Glossary Off
Versions: 1 2 3 4 5 6 7 8 9 10 11 12 13 14 15 16 17 18 19 20 21 22 23 24 25 26 27 28 29 30 31 32 33 34 35 36 37 38 39 40 41 42 43 44 45 46 47 48 49 50

000
ASUS43 KTOP 040308
RWRKS

WEATHER ROUNDUP FOR KANSAS
NATIONAL WEATHER SERVICE GOODLAND KS
900 PM CST TUE MAR 03 2015

NOTE:  "FAIR" INDICATES FEW OR NO CLOUDS BELOW 12,000 FEET WITH NO
SIGNIFICANT WEATHER AND/OR OBSTRUCTIONS TO VISIBILITY.

KSZ001>006-013>018-027>032-041>047-040400-
NORTHWEST KANSAS

CITY           SKY/WX    TMP DP  RH WIND       PRES   REMARKS
GOODLAND       FLURRIES  25  13  60 NE13      29.97R WCI  14
HAYS           PTCLDY    27   9  46 N10       30.02R WCI  17
HILL CITY      CLOUDY    27  13  55 N10       30.04R WCI  17
RUSSELL        MOCLDY    25  14  63 N10       30.00R WCI  15
$$

KSZ061>065-074>080-084>089-040400-
SOUTHWEST KANSAS

CITY           SKY/WX    TMP DP  RH WIND       PRES   REMARKS
DODGE CITY     MOCLDY    28  19  69 N10       29.96R WCI  19
ELKHART          N/A     30  21  69 N10         N/A  WCI  21
GARDEN CITY    PTCLDY    27  19  72 NE10      29.96R WCI  17
GREAT BEND     CLOUDY    30  16  55 N12       30.00R WCI  21
LIBERAL        CLOUDY    36  25  64 NE14      29.94R WCI  27
PRATT          CLOUDY    32  21  64 NE12      29.96R WCI  23
$$

KSZ066>073-081>083-090>101-040400-
SOUTHEAST KANSAS

CITY           SKY/WX    TMP DP  RH WIND       PRES   REMARKS
CHANUTE        CLOUDY    40  32  73 N10       29.90R WCI  33
COFFEYVILLE    CLOUDY    43  37  79 NE10      29.88F
HUTCHINSON     CLOUDY    34  19  54 N13       29.97R WCI  25
MEDICINE LODGE   N/A     35  22  58 N14G25    29.95R WCI  26
NEWTON         CLOUDY    34  19  55 N15G21    29.97R WCI  24
PARSONS        CLOUDY    41  38  89 N8        29.92R
WICHITA INTL   CLOUDY    36  24  62 N17G23    29.96R WCI  26
WICHITA JABRA  CLOUDY    34  24  67 N14       29.95R WCI  25
WICHITA MCCONL CLOUDY    35  24  65 N14       29.95R WCI  26
WINFIELD       CLOUDY    41  30  65 N12       29.94R
$$

KSZ007>012-019>026-033>040-048>060-102>105-040400-
NORTHEAST KANSAS

CITY           SKY/WX    TMP DP  RH WIND       PRES   REMARKS
CONCORDIA        N/A     27   6  41 N13       30.03R WCI  16
EMPORIA        CLOUDY    33  23  66 N17G23    29.96R WCI  22
LAWRENCE       CLOUDY    33  23  66 N13G20    29.99R WCI  24
MANHATTAN      CLOUDY    32  17  54 N15G24    30.02R WCI  22
MARYSVILLE     PTCLDY    28   9  43 N16       30.02F WCI  17
OLATHE IND     CLOUDY    33  26  75 N15       29.94F WCI  23
OLATHE EXE     CLOUDY    35  27  72 N16G22    29.92F WCI  25
SALINA         MOCLDY    33  17  51 N10       30.03R WCI  25
TOPEKA BILLARD CLOUDY    33  21  61 N9        30.00R
TOPEKA FORBES  CLOUDY    34  21  59 N13G23    29.98R WCI  25
$$



USA.gov is the U.S. government's official web portal to all federal, state and local government web resources and services.